Home   Weather   Christchurch   Past weeks

Flag for New Zealand Past Weather in Christchurch, New Zealand — Yesterday and Last 2 Weeks

Now
43 °F

Quite cool.


Feels Like: 37 °F
Forecast: 38 / 57 °F
Wind: 10 mph from East

Location: Christchurch Airport

Current Time: Jul 23, 2017 at 7:06:10 pm

Latest Report: Jul 23, 2017 at 6:00 pm


Visibility: N/A

Pressure: 29.59 "Hg

Humidity: 81%

Dew Point: 37 °F

Location of ChristchurchLocation

Past Weather in Christchurch — Graph

°F

Christchurch Temperature Yesterday

Maximum temperature yesterday: 50 °F (at 1:30 am)
Minimum temperature yesterday: 43 °F (at 6:30 am)
Average temperature yesterday: 44 °F

High & Low Weather Summary for the Past Weeks

 TemperatureHumidityPressure
High57 °F (Jul 20, 12:00 pm)100% (Jul 8, 11:30 pm)30.21 "Hg (Jul 8, 11:30 pm)
Low27 °F (Jul 11, 5:30 am)55% (Jul 20, 1:30 pm)28.65 "Hg (Jul 21, 12:00 pm)
Average43 °F90%29.81 "Hg
* Reported Jul 8 5:00 pm — Jul 23 5:00 pm, Christchurch. Weather by CustomWeather, © 2017

Note: Actual official high and low records may vary slightly from our data, if they occured in-between our weather recording intervals... More about our weather records

Advertising

Christchurch Weather History for the Previous 24 Hours

Scroll right to see more
 ConditionsComfort  
Time TempWeatherWind HumidityBarometerVisibility
5:00 pm
Sun, Jul 23
43 °FQuite cool.12 mph87%29.59 "HgN/A
4:30 pm45 °FQuite cool.12 mph81%29.59 "HgN/A
4:00 pm46 °FCool.12 mph71%29.59 "HgN/A
3:30 pm46 °FCool.10 mph76%29.59 "HgN/A
2:30 pm48 °FCool.7 mph71%29.62 "HgN/A
1:30 pm48 °FCool.5 mph66%29.62 "HgN/A
1:00 pm48 °FCool.2 mph66%29.65 "HgN/A
12:30 pm46 °FCool.2 mph71%29.65 "HgN/A
12:00 pm45 °FPassing clouds.2 mph76%29.68 "HgN/A
11:30 am46 °FCool.1 mph66%29.68 "HgN/A
11:00 am45 °FPartly sunny.2 mph76%29.68 "HgN/A
10:30 am45 °FOvercast.1 mph81%29.68 "HgN/A
10:00 am45 °FOvercast.1 mph81%29.68 "HgN/A
9:30 am43 °FMore clouds than sun.3 mph87%29.68 "HgN/A
8:30 am41 °FLight rain. Overcast.3 mph93%29.68 "Hg4 mi
8:00 am41 °FPartly sunny.3 mph87%29.68 "HgN/A
7:30 am41 °FPassing clouds.3 mph87%29.68 "HgN/A
7:00 am41 °FMostly cloudy.3 mph93%29.68 "Hg4 mi
6:30 am41 °FMostly cloudy.6 mph93%29.68 "HgN/A
6:00 am41 °FPassing clouds.7 mph93%29.68 "HgN/A
5:30 am41 °FPartly cloudy.7 mph93%29.68 "HgN/A
5:00 am41 °FLight rain. Partly cloudy.6 mph93%29.65 "Hg2 mi
4:30 am41 °FOvercast.7 mph87%29.65 "HgN/A
4:00 am41 °FPassing clouds.6 mph93%29.65 "Hg2 mi
3:30 am41 °FOvercast.7 mph87%29.65 "HgN/A
3:00 am41 °FPassing clouds.7 mph87%29.65 "HgN/A
2:30 am41 °FPartly cloudy.7 mph87%29.65 "HgN/A
2:00 am41 °FMostly cloudy.7 mph93%29.65 "HgN/A
1:30 am41 °FPartly cloudy.7 mph93%29.65 "HgN/A
1:00 am43 °FMostly cloudy.8 mph87%29.65 "HgN/A
12:30 am43 °FPassing clouds.13 mph87%29.65 "HgN/A
12:00 am43 °FMostly cloudy.13 mph93%29.62 "HgN/A
11:30 pm
Sat, Jul 22
43 °FLight rain. Mostly cloudy.17 mph93%29.65 "Hg6 mi
11:00 pm43 °FMostly cloudy.20 mph93%29.62 "Hg6 mi
10:30 pm43 °FLight rain. Passing clouds.23 mph93%29.62 "Hg4 mi
10:00 pm43 °FLight rain. Mostly cloudy.22 mph93%29.59 "Hg4 mi
9:30 pm43 °FLight rain. Partly cloudy.18 mph93%29.59 "Hg4 mi
9:00 pm43 °FLight rain. Fog.20 mph93%29.59 "Hg3 mi
8:30 pm43 °FLight rain. Overcast.16 mph93%29.59 "Hg4 mi
8:00 pm43 °FDrizzle. Mostly cloudy.20 mph93%29.56 "Hg3 mi
7:30 pm43 °FLight rain. Overcast.20 mph93%29.56 "Hg3 mi
7:00 pm43 °FPassing clouds.17 mph93%29.56 "Hg4 mi
Weather by CustomWeather, © 2017

See weather overviewHow to use our weather pages